Carbondale, IL

11:30 PM CST on December 09, 2019 (GMT -0600)
Southern Illinois

Weather History for KMDH - October, 2019

Change the Weather History Date:

Monday, October 28, 2019

  Actual Average Record
Temperature  
Mean Temperature 57 °F -  
Max Temperature 61 °F 65 °F 92 °F (1927)
Min Temperature 53 °F 36 °F 20 °F (1976)
Degree Days  
Heating Degree Days 8    
Growing Degree Days 7 (Base 50)    
Moisture  
Dew Point 51 °F    
Average Humidity 82    
Maximum Humidity 96    
Minimum Humidity 64    
Precipitation  
Precipitation 0.00 in - - ()
Sea Level Pressure  
Sea Level Pressure 30.06 in    
Wind  
Wind Speed 7 mph (SSW)    
Max Wind Speed 15 mph    
Max Gust Speed 21 mph    
Visibility 6 miles    
Events      
Averages and records for this station are not official NWS values.
T = Trace of Precipitation, MM = Missing Value Source: NWS Daily Summary

Daily Weather History Graph

Daily Weather History Graph

Search for Another Location

Airport or City:

Astronomy

Oct. 28, 2019 Rise Set
Actual Time 7:17 AM CDT 6:03 PM CDT
Civil Twilight 6:51 AM CDT 6:29 PM CDT
Nautical Twilight 6:20 AM CDT 7:00 PM CDT
Astronomical Twilight 5:49 AM CDT 7:31 PM CDT
Moon 7:39 AM CDT (10/28) 6:48 PM CDT (10/28)
Length of Visible Light 11h 38m
Length of Day
10h 45m
New Moon, 0% of the Moon is Illuminated
Oct 28
New Moon
Nov 4
First Quarter
Nov 12
Full
Nov 19
Last Quarter
Nov 26
New

Hourly Weather History & Observations

Time (CDT) Temp. Dew Point Humidity Pressure Visibility Wind Dir Wind Speed Gust Speed Precip Events Conditions
12:04 AM 54.0 °F 52.0 °F 93% 30.05 in 2.5 mi SSW 9.2 mph - N/A   Overcast
12:32 AM 55.0 °F 52.0 °F 89% 30.05 in 3.0 mi South 8.1 mph - N/A   Overcast
12:52 AM 55.0 °F 51.1 °F 86% 30.05 in 3.0 mi SSW 6.9 mph - N/A   Overcast
1:36 AM 55.0 °F 51.1 °F 86% 30.05 in 2.5 mi SSW 12.7 mph - N/A   Overcast
1:52 AM 55.0 °F 51.1 °F 86% 30.05 in 3.0 mi SSW 12.7 mph - N/A   Overcast
2:14 AM 54.0 °F 51.1 °F 90% 30.05 in 8.0 mi SSW 10.4 mph - N/A   Overcast
2:52 AM 54.0 °F 52.0 °F 93% 30.04 in 8.0 mi SSW 5.8 mph - N/A   Overcast
3:52 AM 54.0 °F 52.0 °F 93% 30.05 in 4.0 mi SW 5.8 mph - N/A   Overcast
4:34 AM 53.1 °F 52.0 °F 96% 30.06 in 9.0 mi WSW 5.8 mph - N/A   Overcast
4:52 AM 53.1 °F 51.1 °F 93% 30.07 in 4.0 mi WSW 5.8 mph - N/A   Overcast
5:52 AM 53.1 °F 52.0 °F 96% 30.08 in 4.0 mi Calm Calm - N/A   Overcast
6:15 AM 53.1 °F 51.1 °F 93% 30.09 in 8.0 mi West 3.5 mph - 0.00 in   Overcast
6:52 AM 53.1 °F 51.1 °F 93% 30.09 in 5.0 mi Calm Calm - 0.00 in   Overcast
7:52 AM 53.1 °F 52.0 °F 96% 30.09 in 9.0 mi Calm Calm - N/A   Overcast
8:52 AM 54.0 °F 52.0 °F 93% 30.10 in 10.0 mi SSE 5.8 mph - N/A   Overcast
9:52 AM 55.9 °F 53.1 °F 90% 30.10 in 10.0 mi South 4.6 mph - N/A   Overcast
10:52 AM 57.0 °F 52.0 °F 83% 30.10 in 10.0 mi South 5.8 mph - N/A   Overcast
11:52 AM 59.0 °F 51.1 °F 75% 30.08 in 10.0 mi SSW 5.8 mph - N/A   Overcast
12:52 PM 59.0 °F 50.0 °F 72% 30.07 in 10.0 mi SSW 4.6 mph - N/A   Overcast
1:52 PM 60.1 °F 50.0 °F 69% 30.05 in 10.0 mi SW 4.6 mph - N/A   Overcast
2:52 PM 61.0 °F 50.0 °F 67% 30.04 in 3.0 mi South 4.6 mph - N/A   Haze
2:57 PM 61.0 °F 50.0 °F 67% 30.04 in 2.5 mi South 5.8 mph - N/A   Haze
3:09 PM 61.0 °F 48.9 °F 64% 30.04 in 3.0 mi SSW 6.9 mph - N/A   Haze
3:18 PM 61.0 °F 50.0 °F 67% 30.04 in 2.5 mi South 5.8 mph - N/A   Haze
3:47 PM 60.8 °F 50.0 °F 68% 30.03 in 4.0 mi South 5.8 mph - N/A   Haze
3:52 PM 61.0 °F 50.0 °F 67% 30.04 in 4.0 mi SSE 5.8 mph - N/A   Haze
4:52 PM 60.1 °F 51.1 °F 72% 30.04 in 7.0 mi South 6.9 mph - N/A   Overcast
5:23 PM 59.0 °F 50.0 °F 72% 30.04 in 3.0 mi South 6.9 mph - N/A   Haze
5:52 PM 57.9 °F 50.0 °F 75% 30.04 in 6.0 mi South 6.9 mph - N/A   Haze
6:08 PM 57.9 °F 50.0 °F 75% 30.04 in 4.0 mi South 6.9 mph - N/A   Haze
6:20 PM 57.9 °F 50.0 °F 75% 30.04 in 5.0 mi South 8.1 mph - N/A   Haze
6:52 PM 57.0 °F 50.0 °F 77% 30.04 in 4.0 mi South 5.8 mph - N/A   Haze
7:52 PM 57.0 °F 50.0 °F 77% 30.05 in 4.0 mi South 6.9 mph - N/A   Haze
8:52 PM 55.9 °F 51.1 °F 84% 30.04 in 5.0 mi SSE 4.6 mph - N/A   Haze
9:52 PM 55.9 °F 50.0 °F 80% 30.06 in 3.0 mi South 15.0 mph 20.7 mph N/A   Haze
10:52 PM 55.0 °F 51.1 °F 86% 30.07 in 5.0 mi SW 10.4 mph - N/A   Overcast
11:52 PM 54.0 °F 52.0 °F 93% 30.06 in 6.0 mi SSW 10.4 mph - N/A   Overcast